This is the latest recevied weather packets stored in our database for station/object W9KHP-1. If no packets are shown the sender has not sent any weather packets the latest 10 day(s).
| Time | Temp. | Humidity | Pressure | Rain* | Wind** | Luminosity | Snow |
|---|---|---|---|---|---|---|---|
| 1777597351 | 12.22° C | 64% | 1017.7 hPa | 0 mm | - | 0 W/m² | - |
| 1777597047 | 12.22° C | 62% | 1017.8 hPa | 0 mm | - | 0 W/m² | - |
| 1777596744 | 12.22° C | 64% | 1017.8 hPa | 0 mm | - | 0 W/m² | - |
| 1777596440 | 12.22° C | 62% | 1017.7 hPa | 0 mm | - | 1 W/m² | - |
| 1777596138 | 12.78° C | 63% | 1017.8 hPa | 0 mm | - | 2 W/m² | - |
| 1777595834 | 12.78° C | 61% | 1017.5 hPa | 0 mm | - | 3 W/m² | - |
| 1777595529 | 12.78° C | 60% | 1017.7 hPa | 0 mm | - | 5 W/m² | - |
| 1777595225 | 12.78° C | 60% | 1017.6 hPa | 0 mm | - | 8 W/m² | - |
| 1777594921 | 13.33° C | 62% | 1017.5 hPa | 0 mm | - | 10 W/m² | - |
| 1777594618 | 13.33° C | 64% | 1017.5 hPa | 0 mm | - | 14 W/m² | - |
| 1777594314 | 13.89° C | 59% | 1017.4 hPa | 0 mm | - | 15 W/m² | - |
| 1777594010 | 13.89° C | 62% | 1017.4 hPa | 0 mm | - | 16 W/m² | - |
| 1777593706 | 14.44° C | 56% | 1017.5 hPa | 0 mm | - | 21 W/m² | - |
| 1777593403 | 14.44° C | 54% | 1017.4 hPa | 0 mm | - | 22 W/m² | - |
| 1777593102 | 15° C | 54% | 1017.3 hPa | 0 mm | - | 21 W/m² | - |
| 1777592801 | 15° C | 53% | 1017.2 hPa | 0 mm | - | 21 W/m² | - |
| 1777592497 | 15° C | 51% | 1017.3 hPa | 0 mm | - | 22 W/m² | - |
| 1777592193 | 15.56° C | 53% | 1017.1 hPa | 0 mm | - | 26 W/m² | - |
| 1777591889 | 15.56° C | 49% | 1017.3 hPa | 0 mm | - | 27 W/m² | - |
| 1777591586 | 15.56° C | 49% | 1017.2 hPa | 0 mm | - | 27 W/m² | - |
| 1777591282 | 15.56° C | 50% | 1017.3 hPa | 0 mm | - | 31 W/m² | - |
| 1777590978 | 15.56° C | 52% | 1017.4 hPa | 0 mm | - | 34 W/m² | - |
| 1777590673 | 16.11° C | 48% | 1017.4 hPa | 0 mm | - | 37 W/m² | - |
| 1777590369 | 16.11° C | 46% | 1017.4 hPa | 0 mm | - | 38 W/m² | - |
| 1777590067 | 16.11° C | 43% | 1017.5 hPa | 0 mm | - | 38 W/m² | - |
* Rain latest hour (hover to see other rain measurements)
** Current wind speed in m/s (hover to see current wind gust speed)